Location: Silent Lake
(44.9206°N, 78.0708°W)
Time: 20:45:04
(UTC-04:00)

Daily predictions for brighter satellites

Satellite Brightness Start Highest point End
(mag) Time Altitude Azimuth Time Altitude Azimuth Time Altitude Azimuth
Cosmos 1437 Rocket 3.9 21:32:03 10° NNW 21:35:41 42° W 21:39:21 10° SSW
deb Chang Zheng 4 3.6 21:31:56 10° NNE 21:36:18 74° ESE 21:40:37 10° S
Cosmos 304 Rocket 4.4 21:35:24 10° NNW 21:40:08 58° WSW 21:44:50 10° S
Cosmos 1726 3.0 21:36:43 10° N 21:40:13 34° ENE 21:43:41 10° SE
Cosmos 2298 Rocket 4.5 21:36:33 10° S 21:41:33 43° ESE 21:46:33 10° NNE
Sich 1 3.9 21:41:45 10° SSE 21:45:42 33° E 21:49:39 10° NNE
Cosmos 1151 Rocket 3.8 21:43:23 10° NNW 21:47:36 54° W 21:51:50 10° S
PSLV R/B 3.2 21:45:29 10° SSE 21:48:31 63° ENE 21:51:33 10° N
CZ-4B R/B 4.2 21:44:20 10° NNE 21:49:12 36° E 21:53:56 10° SSE
Cosmos 1939 Rocket 3.2 21:45:37 10° S 21:49:29 62° WSW 21:53:21 10° NNW
Cosmos 2242 Rocket 4.4 21:46:03 10° N 21:50:13 36° ENE 21:54:23 10° SE
Cosmos 1633 Rocket 3.7 21:48:05 10° SSE 21:52:05 36° E 21:56:06 10° NNE
Cosmos 2237 4.3 21:47:09 10° NNW 21:52:54 82° WSW 21:58:37 10° SSE
Meteor 1-4 Rocket 3.4 21:50:06 10° N 21:53:36 35° ENE 21:56:51 11° SE
SPOT 5 2.9 21:52:23 10° SSE 21:57:02 88° W 22:01:59 10° NNW
USA 245 2.9 21:59:33 13° SE 22:01:19 32° ENE 22:03:23 10° N
Cosmos 2219 3.4 21:57:38 10° SSW 22:03:24 83° WNW 22:09:11 10° NNE
Cosmos 292 Rocket 3.9 21:58:59 10° NNW 22:03:44 63° ENE 22:08:03 12° SSE
Cosmos 2237 Rocket 2.9 22:00:24 10° NNW 22:05:51 44° ENE 22:10:50 12° SE
Aureole 3 4.5 22:02:38 10° SSW 22:08:56 74° W 22:13:53 10° N
MetOp-B 4.2 22:03:37 10° SSE 22:08:59 88° WSW 22:14:23 10° NNW
Cosmos 1805 Rocket 3.6 22:04:33 10° S 22:09:00 88° W 22:13:28 10° N
Cosmos 2333 4.3 22:03:40 10° NNW 22:09:25 81° WSW 22:14:59 11° SSE
H-2A R/B 3.2 22:05:52 11° SE 22:10:20 33° ENE 22:15:09 10° N
Cosmos 2082 4.5 22:08:42 10° SSE 22:13:43 33° ESE 22:18:46 10° NE
Cosmos 1271 Rocket 2.9 22:10:02 10° N 22:13:50 58° ENE 22:17:01 14° SSE
Cosmos 2360 Rocket 3.9 22:10:33 10° NW 22:15:20 29° WSW 22:20:06 10° SSW
Cosmos 1898 Rocket 3.4 22:11:09 10° SSW 22:16:18 74° ESE 22:21:32 10° NNE
Landsat 7 4.5 22:14:43 14° SE 22:18:28 41° ENE 22:22:57 10° N
Cosmos 220 Rocket 4.2 22:15:03 10° S 22:19:18 52° ESE 22:23:39 10° NNE
Cosmos 858 Rocket 4.4 22:14:26 10° S 22:19:36 72° ESE 22:24:48 10° NNE
CZ-4C R/B 3.9 22:18:52 16° SE 22:21:09 36° ENE 22:24:23 10° N
Iridium 2 4.2 22:19:28 15° SSE 22:22:18 42° E 22:25:58 10° NNE
NOSS 3-1 (A) 3.4 22:16:46 10° SSW 22:22:40 80° SE 22:29:17 10° NE
SPOT 1/Viking Rocket 3.5 22:17:51 11° SSE 22:22:45 88° ENE 22:27:57 10° NNW
NOAA 11 4.2 22:18:01 13° SSE 22:22:55 72° ENE 22:28:23 10° N
Cosmos 1626 3.3 22:21:48 17° SE 22:23:46 26° E 22:26:58 10° NNE
Cosmos 1346 4.2 22:22:51 19° SE 22:24:07 26° E 22:26:43 10° NE
H-2A R/B 4.0 22:21:50 10° SSW 22:25:42 28° W 22:29:36 10° NW
Cosmos 1707 Rocket 4.1 22:21:48 10° NNW 22:26:05 55° W 22:30:21 10° S
Cosmos 1703 3.3 22:23:37 12° S 22:27:04 58° E 22:30:56 10° NNE
SL-14 R/B 3.5 22:24:15 10° SSW 22:28:12 73° W 22:32:15 10° N
Cosmos 2150 Rocket 4.2 22:24:07 10° SSW 22:29:35 86° WNW 22:35:06 10° NNE
OTV 4 2.5 22:28:45 10° SSW 22:29:40 14° S 22:29:40 14° S
YAOGAN 6 3.1 22:27:34 11° S 22:30:55 54° W 22:34:27 10° NNW
Cosmos 1666 Rocket 3.9 22:27:32 10° SSW 22:31:55 69° W 22:36:23 10° N
Terra 2.5 22:31:05 17° SE 22:34:20 42° ENE 22:38:49 10° N
SL-08 RB Rocket 3.6 22:32:55 17° SSE 22:36:25 84° ENE 22:40:56 10° NNW
Nadezhda 1 Rocket 4.0 22:36:34 10° N 22:42:39 73° E 22:47:23 18° SSE
ATLAS 2AS CENTAUR R/B 3.1 22:37:49 10° S 22:45:01 52° ESE 22:52:45 10° NE
Cosmos 1470 Rocket 3.5 22:42:22 17° S 22:45:39 68° E 22:49:56 10° NNE
Cosmos 1300 4.5 22:42:26 10° NNW 22:45:46 28° W 22:49:06 10° SSW
Cosmos 2227 Rocket 2.2 22:40:40 10° S 22:46:13 62° ESE 22:51:49 10° NNE
Cosmos 1933 Rocket 3.6 22:43:16 17° S 22:46:39 67° E 22:51:06 10° NNE
NOSS 0 Rocket 4.1 22:42:46 10° NNW 22:48:55 71° WSW 22:53:27 19° SSE
ERBS 2.2 22:45:30 10° SW 22:48:59 68° SE 22:52:27 10° NE
Tiangong 1 1.1 22:47:58 10° WSW 22:51:00 53° S 22:52:17 29° ESE
SAR-Lupe-2 4.2 22:49:41 26° SE 22:51:18 43° ENE 22:54:45 10° N
OAO 2 Rocket 4.4 22:47:23 10° SW 22:51:52 28° S 22:53:39 23° SE
ATLAS 3B R/B 2.9 22:47:22 10° NNW 22:54:26 64° NE 22:59:20 19° SE
Cosmos 1745 Rocket 4.0 22:52:16 10° S 22:58:30 84° W 23:04:43 10° N
SL-16 R/B 2.6 22:55:18 10° NNW 23:00:53 53° ENE 23:04:25 22° SE
Lacrosse 4 Rocket 2.1 22:56:58 10° NNW 23:01:17 49° NE 23:03:42 24° ESE
DMSP B5D2-2 4.2 22:58:23 10° NNE 23:03:33 58° E 23:06:47 23° S
Cosmos 2333 Rocket 2.5 22:58:04 10° NNW 23:03:45 62° WSW 23:07:32 21° S
CZ-4 R/B 4.3 23:00:04 10° N 23:04:57 64° WNW 23:09:43 10° SSW
BREEZE-M TANK 4.1 22:43:51 10° WSW 23:06:10 72° SSE 23:10:38 10° E
Cosmos 1709 Rocket 4.2 23:02:51 23° SSE 23:06:35 52° E 23:12:28 10° NNE
Cosmos 2221 Rocket 4.3 23:03:03 10° N 23:07:23 41° ENE 23:09:20 27° SE
ARGOS 4.0 23:03:30 14° S 23:07:56 46° W 23:13:07 10° NNW
Cosmos 1455 2.3 23:04:24 10° NNW 23:08:12 69° W 23:10:08 27° S
Cosmos 1937 Rocket 4.3 23:06:55 10° SW 23:12:01 52° WNW 23:17:06 10° NNE
Cosmos 2297 Rocket 2.1 23:07:58 14° SSW 23:12:52 70° ESE 23:18:30 10° NNE
COS B Rocket 4.4 23:09:54 10° NNE 23:13:27 31° E 23:14:33 27° ESE
Cosmos 1933 3.7 23:09:58 10° N 23:13:57 53° ENE 23:15:26 33° SE
COSMOS 2455 2.9 23:08:19 10° NNW 23:14:23 79° ENE 23:17:55 26° SE
Cosmos 2219 Rocket 3.2 23:10:01 10° NW 23:15:09 38° WSW 23:18:54 17° SSW
Cosmos 1386 Rocket 4.5 23:13:36 16° SSW 23:18:36 80° W 23:24:39 10° N
Cosmos 990 Rocket 4.4 23:14:23 10° SSW 23:19:29 62° WNW 23:24:37 10° NNE
Cosmos 1862 Rocket 4.2 23:20:59 10° NNW 23:25:10 48° W 23:27:33 23° SSW
CARTOSAT-1 4.0 23:25:07 27° SSW 23:27:15 55° W 23:31:31 10° NNW
Cosmos 2181 Rocket 4.0 23:29:51 10° N 23:36:17 85° E 23:39:48 29° S
Cosmos 2251 Rocket 4.5 23:31:31 10° N 23:36:29 38° ENE 23:39:06 24° ESE
CZ-4C R/B 3.8 23:35:17 10° NNW 23:41:44 41° NE 23:48:29 11° ESE
H-2A R/B 4.3 23:39:04 10° NE 23:42:01 18° E 23:42:10 18° E
Cosmos 1269 Rocket 4.2 23:38:54 10° NNW 23:44:10 63° WSW 23:46:29 33° S
IGS 5A 4.4 23:43:40 26° SSW 23:45:24 39° W 23:49:21 10° NNW
SeaSat 1 3.2 23:43:30 25° ESE 23:45:58 45° NE 23:50:40 10° NNW
Cosmos 2184 Rocket 4.4 23:43:47 30° SE 23:46:19 46° E 23:52:10 10° NNE
NOSS 2-3 (C) 4.0 23:44:46 33° S 23:46:50 59° ESE 23:52:26 10° NE
H-2A R/B 3.2 23:46:30 20° SSW 23:49:38 38° W 23:54:42 10° NNW
Cosmos 2237 Rocket 3.5 23:44:48 10° NW 23:49:44 31° WSW 23:52:39 20° SSW
Meteor 1-26 Rocket 4.2 23:45:06 10° N 23:50:46 81° ENE 23:53:14 36° SSE
FALCON 9 R/B 3.6 23:31:33 10° W 23:50:53 43° SSW 23:54:02 30° SSE
Cosmos 1733 Rocket 4.4 23:53:33 25° ESE 23:54:09 26° E 23:57:50 10° NNE
Cosmos 1869 Rocket 3.5 23:53:42 41° S 23:55:14 88° W 23:59:45 10° N
